Retour au catalogue

STARLINK-31208

ActifCommunicationsVLEO
NORAD 59037·PAYLOAD·🇺🇸 United States

Lancé Feb 25, 2024 depuis Cape Canaveral Space Force Station

Loading…

Prochains Passages (prochaines 24 heures)

TLE

FraisSource: CelesTrak SupGP

Époque: Sep 14, 2026, 21:47 UTC

1 59037C 24038Q   26257.90812500  .00045706  00000+0  16553-2 0  2578
2 59037  43.0040  38.8879 0001764 272.9737 343.4109 15.27558540    12

Suivez STARLINK-31208 en temps réel avec AllMySat

Download on the App Store